Temperature
9 9 8 8 8 8 8 8 8 8 8 8 8 8 9 9 9 10 10 10 11 11 11 11 11 11 11 11 11 11 10 10 10 10 10 11 11 11 11 11 11 11 11
9 9 8 8 8 8 8 7 7 7 7 7 7 8 8 8 9 9 9 10 10 11 11 11 11 11 11 11 11 10 10 10 10 10 10 10 10 10 10 10 11 10 10
9 8 8 8 8 7 7 7 7 7 7 7 7 7 7 8 8 8 9 9 10 10 11 11 11 11 10 10 10 10 10 10 9 9 9 9 9 9 9 10 10 10 10
8 8 8 8 8 7 7 7 7 7 7 7 7 7 7 7 7 8 8 9 9 10 10 10 10 10 10 10 10 9 9 9 9 9 9 8 8 8 8 8 9 9 9
8 8 8 8 7 7 7 7 7 7 7 7 6 6 7 7 7 7 8 8 9 9 9 9 9 9 10 10 9 9 9 8 9 8 8 8 8 8 8 8 8 8 8
8 8 8 8 8 7 7 7 7 7 6 6 6 6 6 7 7 8 8 8 8 8 8 8 9 9 9 9 9 9 8 8 7 7 7 7 7 7 7 7 7 7 7
8 8 8 8 8 7 7 7 7 6 6 6 5 5 6 7 8 8 8 8 8 8 8 8 8 8 8 8 8 8 8 7 7 7 6 6 6 6 6 6 6 6 6
9 8 8 8 8 7 7 7 7 6 6 6 5 4 4 5 6 6 7 7 7 7 7 7 7 6 7 7 7 7 7 7 7 6 6 6 6 6 6 6 6 6 6
9 8 8 8 8 7 7 7 6 6 6 5 5 4 4 4 4 5 6 6 6 6 6 6 6 6 6 6 6 6 6 6 6 6 6 5 6 6 6 6 6 6 6
8 8 8 7 7 7 7 6 6 6 5 5 5 5 4 3 3 3 4 4 5 5 5 5 5 5 5 5 5 5 5 5 5 5 5 5 5 5 5 5 6 6 6
7 7 7 7 7 7 6 6 6 6 5 5 5 5 4 4 3 2 2 3 4 4 4 4 4 4 4 4 4 4 4 4 4 4 4 3 4 4 4 5 5 5 6
7 7 7 6 6 6 6 6 6 5 5 5 5 4 4 3 4 3 2 2 2 3 3 3 3 4 4 4 4 4 4 3 3 3 3 3 2 3 3 3 4 4 5
6 6 6 6 6 6 6 5 5 5 5 5 4 4 4 3 3 2 2 2 2 2 2 2 3 3 3 3 3 3 3 3 3 2 2 2 2 2 2 2 3 3 4
6 6 6 6 6 5 5 5 5 5 4 4 4 3 3 3 3 2 2 1 1 1 1 1 2 2 2 2 2 2 3 2 2 2 2 1 1 1 1 1 1 2 2
6 5 5 5 5 5 5 4 4 4 3 3 3 2 2 2 2 1 1 1 0 0 0 0 1 1 1 1 1 1 1 1 1 1 1 1 1 0 0 0 1 1 1
5 5 5 5 4 4 4 4 3 3 2 2 2 2 2 1 1 1 1 0 0 -0 -0 -0 -0 -0 -0 -1 -0 -0 0 0 0 0 0 0 -0 -0 -0 -0 -0 0 0
5 5 4 4 4 4 4 3 3 2 2 2 1 1 1 0 0 0 -0 -0 -1 -1 -1 -1 -1 -1 -1 -1 -1 -1 -1 -1 -1 -1 -1 -1 -1 -1 -1 -1 -1 -1 -0
4 4 4 4 3 3 3 3 2 2 1 1 1 0 -0 -1 -1 -1 -1 -2 -2 -2 -2 -2 -2 -2 -2 -2 -2 -2 -2 -2 -1 -1 -1 -1 -1 -1 -1 -1 -1 -1 -1
4 4 3 3 3 3 2 2 1 1 0 -0 -0 -1 -1 -2 -2 -2 -2 -3 -3 -3 -3 -3 -3 -3 -3 -3 -3 -3 -2 -2 -2 -2 -2 -2 -2 -2 -2 -2 -2 -2 -2
3 3 3 2 2 2 1 1 0 -0 -1 -1 -1 -2 -2 -3 -3 -3 -4 -4 -4 -4 -4 -4 -4 -3 -3 -3 -3 -3 -3 -3 -3 -2 -3 -3 -2 -2 -2 -2 -2 -2 -2
3 2 2 2 1 1 0 -0 -1 -1 -2 -2 -2 -3 -3 -4 -4 -4 -4 -4 -4 -4 -4 -4 -4 -4 -4 -4 -3 -3 -3 -3 -3 -3 -3 -3 -3 -3 -3 -2 -3 -2 -2
2 2 1 1 0 0 -0 -1 -2 -2 -3 -3 -3 -4 -4 -4 -4 -4 -4 -4 -4 -4 -4 -4 -3 -4 -4 -4 -4 -4 -4 -4 -4 -3 -3 -3 -3 -3 -3 -3 -3 -3 -3
1 1 0 -0 -0 -0 -1 -2 -2 -3 -3 -4 -4 -4 -5 -5 -5 -5 -5 -4 -4 -4 -4 -4 -4 -4 -4 -4 -4 -4 -4 -4 -4 -4 -4 -4 -4 -4 -3 -3 -3 -3 -3
0 0 -0 -1 -1 -1 -2 -3 -3 -4 -4 -4 -5 -5 -5 -5 -5 -5 -5 -4 -4 -4 -4 -4 -4 -4 -4 -4 -4 -4 -4 -4 -4 -4 -4 -4 -4 -4 -4 -4 -4 -4 -4
-0 -1 -1 -1 -2 -2 -3 -4 -4 -4 -5 -5 -5 -5 -5 -5 -5 -5 -5 -4 -4 -4 -4 -4 -4 -4 -4 -4 -4 -3 -3 -4 -4 -4 -4 -4 -4 -4 -4 -4 -4 -4 -4
-1 -1 -2 -2 -3 -3 -4 -4 -5 -5 -5 -5 -5 -5 -5 -5 -5 -5 -5 -5 -4 -4 -4 -4 -4 -4 -4 -4 -4 -4 -4 -4 -4 -4 -4 -4 -4 -4 -4 -4 -4 -4 -4
Wind_Speed
6 7 7 8 10 10 11 11 10 10 10 11 12 12 12 13 14 15 16 17 18 19 20 21 21 21 21 21 21 20 20 20 19 19 19 18 17 17 16 15 14 13 12
8 7 7 7 8 9 9 9 9 8 8 8 8 11 12 14 16 18 19 20 21 22 23 24 24 24 24 24 24 24 23 23 23 22 22 22 21 20 19 19 18 17 16
9 8 6 5 8 10 10 9 9 8 5 6 6 9 11 14 16 17 19 19 21 23 25 26 26 27 27 27 27 27 26 26 26 26 25 25 24 24 23 22 21 20 19
11 8 5 5 9 10 8 5 4 4 5 5 6 6 8 10 13 17 18 20 20 21 24 27 28 28 29 30 30 30 29 29 29 29 28 28 28 27 26 26 25 24 23
10 8 6 7 9 7 5 4 4 4 5 6 6 7 6 6 8 13 14 18 21 22 22 25 28 29 30 31 31 32 32 32 32 32 32 31 31 30 30 29 28 27 26
7 7 6 6 6 4 4 4 5 5 5 6 8 9 8 8 8 10 12 17 19 21 22 23 24 25 29 31 32 33 33 34 34 34 34 34 34 33 33 32 31 30 29
6 6 4 4 4 4 5 5 5 6 5 4 5 7 8 10 13 13 11 11 13 19 20 21 21 21 22 28 30 31 33 34 35 36 36 36 36 36 35 35 34 33 32
5 5 5 3 4 4 6 6 5 5 5 4 3 4 5 5 6 10 9 10 11 11 11 17 18 19 20 21 25 29 30 32 34 35 36 36 37 37 38 37 37 36 35
4 4 5 4 4 4 5 6 6 7 6 5 5 5 5 5 5 5 7 7 7 6 6 10 15 18 20 20 22 27 30 32 33 34 35 35 36 37 38 38 39 38 38
2 3 3 4 4 4 5 6 6 6 6 6 5 6 8 7 6 6 4 5 7 8 8 8 9 15 19 20 22 26 30 31 32 33 33 34 35 36 37 38 39 39 39
1 1 2 3 3 4 5 6 6 6 6 7 6 6 7 7 9 10 12 7 7 8 10 11 9 11 17 20 20 24 30 31 32 33 33 33 34 35 36 37 38 39 39
1 1 2 3 4 4 5 6 6 7 7 8 7 7 7 7 7 9 12 11 11 8 9 8 8 8 13 17 21 26 29 31 32 32 32 32 33 33 35 36 37 38 39
2 2 2 3 4 5 6 6 7 8 8 9 9 8 8 9 8 9 13 15 14 10 9 8 8 8 14 16 18 24 28 31 31 32 32 31 32 32 33 34 35 36 37
3 3 4 5 6 7 7 6 6 8 8 9 10 10 9 9 9 9 10 12 17 14 9 10 7 8 10 14 17 21 21 28 30 30 30 30 31 31 32 33 34 35 36
3 4 5 6 6 7 7 7 7 8 8 9 9 10 10 9 8 9 9 9 13 20 18 10 7 7 8 13 17 17 16 23 28 28 29 29 30 31 32 32 33 34 34
4 6 7 7 7 7 7 8 8 8 9 9 8 10 10 9 8 8 9 9 10 15 21 12 7 8 8 11 22 20 17 26 28 29 29 29 30 31 31 32 32 33 33
6 7 7 8 8 9 9 8 9 9 10 10 9 10 11 10 8 8 8 9 9 10 19 18 8 7 9 10 12 14 17 16 18 28 30 31 31 31 31 31 31 32 32
7 7 8 9 9 9 9 9 10 10 10 11 10 10 11 11 11 10 9 10 10 10 14 21 14 8 10 9 10 11 12 14 13 25 30 31 31 31 30 30 30 31 31
8 8 9 9 10 10 10 10 10 10 10 11 10 11 12 12 14 12 12 12 11 13 12 16 18 10 8 8 10 12 13 11 14 21 26 28 29 30 29 29 29 29 29
9 9 9 10 10 11 11 11 11 11 11 11 12 12 13 14 15 15 15 14 13 13 13 15 17 13 10 9 9 10 12 9 12 12 17 21 25 27 28 28 27 27 27
10 10 11 11 11 10 10 11 10 11 11 12 12 12 14 19 23 20 17 13 12 13 13 14 16 15 12 9 10 9 13 10 10 10 10 11 11 10 12 20 23 25 25
10 10 11 11 11 11 20 24 19 12 10 11 12 12 14 18 22 27 29 27 23 16 13 14 15 15 15 12 10 11 12 13 12 6 9 11 8 10 9 8 19 24 24
10 11 10 11 11 13 23 26 26 17 12 11 12 12 14 15 21 14 20 26 25 28 26 18 17 17 16 13 12 14 14 14 14 7 7 10 8 10 8 11 21 22 22
10 10 11 11 11 14 25 27 27 17 11 12 12 13 15 14 15 17 14 14 15 16 20 16 15 16 16 15 14 15 15 15 13 10 9 12 9 9 10 8 18 21 21
10 10 10 11 12 14 23 26 26 12 11 12 13 13 15 14 23 28 20 16 16 14 20 25 26 25 27 28 22 13 11 12 13 9 7 8 8 7 7 8 12 20 21
11 11 11 10 12 12 21 26 26 11 11 12 11 12 20 22 27 29 18 15 17 16 14 15 18 20 18 19 24 14 10 11 11 8 6 6 7 5 5 5 7 7 10
Wind_Direction
182 195 208 214 214 214 212 218 224 237 242 240 237 236 241 247 249 248 246 248 252 255 259 261 261 260 260 259 259 259 257 254 253 252 251 250 250 249 249 249 248 248 249
195 199 212 220 226 230 234 230 232 242 247 246 243 243 244 246 249 250 250 249 251 254 257 259 260 260 259 258 258 257 256 255 253 251 250 249 248 248 247 247 246 246 247
212 210 215 222 230 236 240 242 248 257 259 259 256 257 257 254 251 250 251 249 248 250 255 258 259 260 259 258 257 257 256 255 254 253 251 249 248 247 246 245 245 244 244
218 222 221 226 236 240 239 234 234 250 259 260 258 254 254 255 253 252 251 250 248 247 250 256 258 260 260 260 259 258 256 255 254 254 252 250 248 247 246 245 244 243 243
223 227 229 235 242 243 240 235 236 236 253 263 267 266 261 259 260 260 254 250 247 246 245 252 258 260 262 263 262 261 259 257 255 254 253 251 249 247 246 245 244 243 242
235 236 239 245 251 251 251 246 247 248 249 258 273 275 270 266 263 261 259 256 252 249 247 248 251 255 261 263 265 265 264 261 258 256 254 252 251 249 247 245 244 243 242
245 245 247 254 257 255 253 251 253 262 267 270 284 289 275 259 256 256 253 251 249 248 246 246 247 247 253 260 264 266 267 266 264 260 257 254 252 251 249 247 245 243 242
246 239 235 236 242 253 262 258 253 261 266 252 253 298 304 301 268 257 251 245 245 243 242 246 248 247 246 247 253 261 267 269 268 267 264 260 256 253 251 249 247 245 243
253 246 243 244 246 242 251 253 246 247 257 252 219 224 263 275 312 294 291 284 268 254 248 249 250 250 248 245 246 255 261 266 269 270 269 266 263 259 255 252 250 247 245
231 248 253 257 256 253 256 255 248 243 245 256 250 231 235 239 271 293 274 282 296 287 277 266 257 252 250 246 246 252 258 263 267 269 270 270 268 265 261 257 253 250 248
206 247 261 269 267 259 260 261 263 255 244 245 245 245 252 253 247 263 279 269 262 258 261 261 258 256 251 246 243 248 257 263 266 269 270 271 271 269 266 263 259 255 251
318 297 276 275 273 267 265 263 260 259 254 253 251 245 244 246 249 254 270 276 275 266 260 262 264 261 261 255 250 251 255 261 264 267 269 270 271 271 270 268 265 261 257
325 318 323 288 277 268 266 261 261 259 256 255 254 254 251 250 249 255 267 277 280 277 267 263 261 266 270 264 259 255 257 261 263 266 268 269 270 270 270 270 268 265 262
297 301 300 286 282 280 275 266 264 259 258 254 257 256 256 255 253 252 259 274 283 283 268 261 261 262 273 276 273 266 264 265 265 266 267 269 270 270 269 268 267 266 264
288 291 290 284 282 280 276 274 267 264 262 259 258 258 259 258 255 255 255 255 271 284 283 268 260 264 276 284 285 281 270 271 272 270 269 269 270 270 270 268 266 265 264
294 294 289 287 286 283 280 280 277 273 271 268 264 265 266 266 262 257 256 259 256 269 280 276 257 255 265 276 282 284 279 279 277 275 274 273 272 271 270 269 267 264 262
296 295 293 292 289 287 286 285 283 285 284 284 283 281 278 276 275 271 269 267 264 264 276 282 268 260 258 265 274 275 276 273 273 274 275 275 274 272 271 269 267 265 262
301 297 294 291 289 289 289 288 289 289 287 288 289 291 292 294 289 285 280 276 274 270 274 283 284 272 262 263 267 269 275 275 269 273 274 273 273 272 271 269 268 266 263
298 295 294 292 290 289 287 283 281 281 279 280 283 285 287 289 287 284 281 279 277 278 275 280 285 281 273 269 272 273 271 272 272 273 274 273 273 272 271 270 268 266 264
293 292 289 286 284 283 282 281 279 276 275 274 274 274 277 277 278 277 278 274 273 273 271 274 279 281 276 266 265 271 274 265 268 270 271 271 270 271 270 270 269 268 265
288 285 284 283 281 282 282 280 277 272 271 272 272 272 274 279 280 281 280 275 269 269 271 272 275 278 277 272 268 267 272 273 266 260 263 264 266 263 265 267 268 270 268
285 283 282 281 282 286 293 297 298 288 279 279 283 281 282 285 285 286 286 287 285 281 280 277 280 278 279 275 271 268 271 275 276 240 249 261 253 256 252 246 259 264 265
284 284 283 283 283 287 297 301 301 300 289 286 286 287 289 288 291 283 284 286 285 283 281 278 278 277 279 276 273 273 270 269 271 258 257 268 257 259 254 254 259 260 261
284 285 287 286 287 292 301 302 303 300 289 285 283 283 284 283 282 285 279 274 270 270 272 273 266 267 269 268 262 265 269 270 268 259 247 264 259 255 253 246 255 256 259
288 286 286 288 289 294 301 304 303 294 289 286 283 283 286 286 288 293 291 284 282 277 278 276 272 271 270 272 269 266 261 266 271 264 230 245 255 252 248 245 248 252 254
286 287 287 286 288 292 300 305 304 296 292 290 286 282 288 291 293 294 291 286 286 285 278 277 275 275 275 274 275 268 262 266 270 269 227 226 241 232 251 242 234 239 247
Height
1553 1554 1554 1555 1555 1555 1554 1554 1554 1554 1554 1553 1552 1552 1551 1551 1550 1549 1549 1549 1548 1548 1548 1547 1547 1546 1546 1546 1545 1545 1544 1544 1543 1543 1543 1543 1542 1542 1542 1542 1542 1542 1542
1551 1551 1552 1552 1552 1553 1553 1552 1552 1551 1551 1550 1549 1548 1547 1546 1545 1544 1544 1543 1543 1542 1543 1542 1542 1541 1541 1541 1540 1540 1539 1539 1539 1539 1538 1538 1538 1538 1538 1538 1538 1538 1538
1548 1549 1549 1549 1549 1550 1549 1549 1548 1548 1547 1546 1545 1544 1542 1541 1540 1539 1538 1537 1536 1536 1536 1536 1536 1535 1535 1534 1534 1534 1534 1533 1533 1533 1533 1533 1533 1533 1533 1533 1533 1533 1534
1545 1545 1546 1546 1546 1546 1546 1545 1544 1543 1542 1541 1540 1538 1537 1535 1534 1533 1531 1530 1529 1529 1528 1528 1527 1527 1527 1527 1527 1527 1527 1526 1526 1526 1527 1527 1527 1527 1527 1527 1528 1528 1528
1541 1542 1542 1542 1542 1542 1542 1541 1540 1539 1538 1536 1535 1533 1531 1529 1528 1526 1525 1523 1522 1521 1520 1520 1519 1519 1518 1519 1519 1519 1519 1518 1518 1518 1519 1519 1519 1520 1520 1521 1521 1522 1522
1538 1538 1538 1538 1538 1538 1537 1536 1536 1535 1533 1531 1529 1526 1524 1522 1521 1519 1517 1516 1514 1513 1512 1512 1511 1510 1510 1510 1510 1510 1510 1510 1510 1510 1510 1510 1511 1512 1512 1513 1514 1515 1515
1534 1534 1534 1534 1533 1533 1532 1532 1531 1530 1528 1527 1524 1520 1516 1514 1512 1511 1509 1508 1507 1506 1506 1505 1504 1503 1502 1502 1501 1501 1500 1500 1501 1501 1501 1501 1502 1503 1504 1505 1506 1507 1507
1531 1530 1530 1529 1529 1528 1528 1527 1526 1525 1523 1523 1521 1517 1510 1506 1504 1504 1503 1502 1501 1500 1499 1498 1497 1496 1494 1493 1493 1492 1492 1491 1491 1491 1491 1492 1493 1493 1494 1495 1497 1498 1499
1528 1527 1527 1526 1525 1525 1524 1523 1522 1520 1519 1518 1517 1516 1511 1502 1499 1496 1497 1497 1496 1495 1494 1492 1490 1489 1487 1485 1484 1484 1483 1482 1481 1480 1481 1481 1482 1483 1484 1485 1487 1488 1489
1526 1525 1524 1523 1522 1521 1520 1519 1518 1516 1515 1513 1512 1510 1508 1504 1499 1489 1487 1488 1489 1488 1487 1485 1483 1481 1480 1478 1476 1475 1474 1472 1471 1470 1470 1470 1471 1472 1473 1474 1476 1477 1479
1523 1522 1521 1520 1519 1517 1516 1515 1513 1512 1510 1508 1506 1504 1502 1499 1496 1490 1480 1478 1478 1478 1477 1476 1474 1473 1472 1470 1468 1467 1465 1463 1462 1461 1460 1460 1460 1460 1461 1463 1464 1466 1468
1520 1519 1518 1517 1515 1514 1512 1510 1509 1507 1505 1502 1500 1498 1496 1493 1489 1485 1477 1471 1468 1467 1468 1467 1466 1465 1463 1461 1460 1458 1457 1455 1453 1452 1451 1450 1449 1449 1450 1451 1452 1454 1456
1517 1516 1515 1513 1511 1509 1507 1505 1503 1501 1499 1496 1494 1491 1488 1486 1483 1480 1474 1465 1460 1457 1457 1456 1456 1455 1454 1452 1451 1449 1448 1446 1444 1443 1442 1440 1439 1438 1438 1439 1440 1441 1443
1514 1512 1510 1508 1506 1504 1502 1499 1496 1494 1491 1489 1486 1483 1480 1478 1476 1473 1469 1463 1454 1447 1445 1444 1446 1446 1445 1444 1442 1440 1438 1437 1435 1434 1432 1431 1429 1428 1428 1427 1428 1429 1431
1510 1508 1506 1503 1501 1498 1496 1493 1489 1487 1484 1481 1478 1475 1472 1469 1467 1464 1462 1459 1453 1441 1432 1434 1435 1436 1436 1434 1433 1431 1428 1427 1426 1424 1423 1421 1420 1418 1417 1417 1417 1418 1419
1505 1503 1500 1498 1495 1492 1489 1486 1482 1479 1476 1473 1470 1467 1463 1460 1457 1455 1452 1450 1446 1439 1426 1422 1424 1425 1425 1424 1423 1421 1419 1417 1416 1415 1413 1412 1410 1409 1407 1407 1406 1407 1407
1500 1497 1494 1491 1488 1485 1482 1478 1474 1471 1468 1464 1461 1458 1454 1451 1448 1445 1442 1439 1436 1432 1422 1412 1414 1415 1414 1413 1412 1411 1408 1406 1405 1404 1403 1401 1400 1399 1397 1396 1396 1396 1397
1495 1492 1488 1485 1481 1478 1474 1470 1466 1463 1459 1455 1451 1448 1444 1441 1437 1434 1431 1428 1425 1423 1418 1407 1402 1404 1403 1403 1401 1400 1398 1396 1394 1393 1392 1391 1389 1388 1387 1386 1386 1386 1386
1488 1485 1482 1478 1474 1470 1466 1462 1458 1454 1450 1446 1442 1438 1434 1430 1426 1423 1420 1417 1414 1412 1408 1402 1394 1393 1392 1392 1391 1388 1387 1385 1383 1382 1381 1380 1379 1378 1377 1376 1376 1376 1376
1482 1478 1474 1470 1466 1462 1458 1454 1449 1445 1440 1436 1433 1428 1424 1421 1416 1413 1410 1406 1404 1401 1398 1394 1387 1384 1382 1382 1381 1378 1375 1374 1372 1372 1370 1369 1368 1368 1367 1367 1367 1366 1366
1475 1471 1467 1463 1459 1455 1451 1446 1441 1436 1431 1426 1422 1419 1415 1412 1408 1405 1402 1398 1395 1392 1388 1384 1379 1376 1373 1373 1371 1369 1366 1364 1361 1362 1360 1359 1358 1357 1357 1357 1357 1357 1357
1468 1464 1460 1455 1451 1447 1443 1439 1434 1428 1423 1418 1413 1409 1406 1402 1399 1395 1393 1390 1388 1384 1380 1376 1372 1368 1365 1364 1363 1361 1358 1355 1351 1352 1351 1348 1349 1347 1347 1347 1347 1347 1347
1461 1457 1453 1448 1444 1439 1436 1431 1426 1421 1415 1410 1405 1400 1396 1393 1390 1386 1382 1380 1377 1375 1372 1369 1364 1360 1358 1356 1355 1352 1350 1347 1344 1344 1343 1339 1340 1338 1339 1339 1339 1339 1339
1454 1450 1445 1441 1436 1431 1427 1422 1417 1412 1406 1402 1398 1393 1389 1384 1382 1378 1373 1369 1366 1364 1362 1359 1355 1351 1349 1347 1346 1343 1341 1338 1335 1335 1335 1332 1331 1330 1330 1330 1331 1331 1332
1447 1442 1438 1433 1428 1422 1419 1414 1409 1403 1397 1393 1389 1385 1382 1377 1373 1370 1366 1360 1356 1353 1352 1349 1346 1343 1340 1338 1337 1334 1332 1330 1326 1325 1326 1325 1323 1323 1322 1322 1323 1324 1325
1439 1435 1429 1425 1420 1415 1410 1406 1402 1396 1389 1384 1380 1376 1373 1370 1365 1362 1358 1352 1347 1344 1341 1338 1335 1332 1330 1328 1327 1326 1324 1322 1319 1317 1317 1317 1316 1316 1315 1314 1315 1316 1318